Marysville, MI

8:42 AM EST on December 05, 2016 (GMT -0500)
Saint Clair County International

Weather History for KPHN - January, 2013

Change the Weather History Date:

Tuesday, January 22, 2013

  Actual Average (KMTC) Record (KMTC)
Temperature  
Mean Temperature 6 °F -  
Max Temperature 12 °F 32 °F 50 °F (1957)
Min Temperature 1 °F 19 °F -5 °F (1970)
Degree Days  
Heating Degree Days 58    
Moisture  
Dew Point -7 °F    
Average Humidity 57    
Maximum Humidity 78    
Minimum Humidity 37    
Precipitation  
Precipitation 0.00 in - - ()
Sea Level Pressure  
Sea Level Pressure 30.18 in    
Wind  
Wind Speed 8 mph (West)    
Max Wind Speed 16 mph    
Max Gust Speed 26 mph    
Visibility 10 miles    
Events      
Averages and records for this station are not official NWS values.
T = Trace of Precipitation, MM = Missing Value Source: NWS Daily Summary

Daily Weather History Graph

Daily Weather History Graph

Search for Another Location

Airport or City:

Trip Planner

Search our weather history database for the weather conditions in past years. The results will help you decide how hot, cold, wet, or windy it might be!

Date:

Astronomy

Jan. 22, 2013 Rise Set
Actual Time 7:53 AM EST 5:30 PM EST
Civil Twilight 7:22 AM EST 6:01 PM EST
Nautical Twilight 6:48 AM EST 6:35 PM EST
Astronomical Twilight 6:14 AM EST 7:09 PM EST
Moon 1:51 PM EST (1/22) 4:15 AM EST (1/22)
Length of Visible Light 10h 38m
Length of Day
9h 36m
Waxing Gibbous, 82% of the Moon is Illuminated
Jan 22
Waxing Gibbous
Jan 26
Full
Feb 3
Last Quarter
Feb 10
New
Feb 17
First Quarter

Hourly Weather History & Observations

Time (EST) Temp. Windchill Dew Point Humidity Pressure Visibility Wind Dir Wind Speed Gust Speed Precip Events Conditions
12:18 AM 5.0 °F -5.6 °F -7.6 °F 56% 30.05 in 10.0 mi West 5.8 mph - N/A   Clear
12:38 AM 5.0 °F -9.1 °F -7.6 °F 56% 30.05 in 10.0 mi West 9.2 mph 17.3 mph N/A   Clear
12:58 AM 5.0 °F -6.9 °F -7.6 °F 56% 30.05 in 10.0 mi West 6.9 mph - N/A   Clear
1:18 AM 5.0 °F -9.1 °F -7.6 °F 56% 30.05 in 10.0 mi West 9.2 mph 16.1 mph N/A   Clear
1:38 AM 5.0 °F -10.0 °F -7.6 °F 56% 30.05 in 10.0 mi West 10.4 mph 16.1 mph N/A   Clear
1:58 AM 5.0 °F -9.1 °F -7.6 °F 56% 30.06 in 10.0 mi West 9.2 mph 17.3 mph N/A   Clear
2:18 AM 5.0 °F -9.1 °F -7.6 °F 56% 30.07 in 10.0 mi West 9.2 mph - N/A   Clear
2:38 AM 5.0 °F -9.1 °F -7.6 °F 56% 30.08 in 10.0 mi West 9.2 mph 17.3 mph N/A   Clear
2:58 AM 5.0 °F -10.8 °F -7.6 °F 56% 30.08 in 10.0 mi West 11.5 mph 17.3 mph N/A   Clear
3:18 AM 3.2 °F -10.3 °F -7.6 °F 61% 30.09 in 10.0 mi West 8.1 mph - N/A   Clear
3:38 AM 3.2 °F -11.3 °F -7.6 °F 61% 30.09 in 10.0 mi West 9.2 mph - N/A   Clear
3:58 AM 3.2 °F -10.3 °F -7.6 °F 61% 30.10 in 10.0 mi West 8.1 mph - N/A   Clear
4:18 AM 3.2 °F -11.3 °F -7.6 °F 61% 30.10 in 10.0 mi West 9.2 mph - N/A   Clear
4:38 AM 3.2 °F -11.3 °F -7.6 °F 61% 30.10 in 10.0 mi West 9.2 mph - N/A   Scattered Clouds
4:58 AM 3.2 °F -12.2 °F -7.6 °F 61% 30.11 in 10.0 mi WNW 10.4 mph 17.3 mph N/A   Scattered Clouds
5:18 AM 3.2 °F -6.2 °F -7.6 °F 61% 30.11 in 10.0 mi West 4.6 mph - N/A   Mostly Cloudy
5:38 AM 1.4 °F -15.3 °F -9.4 °F 61% 30.12 in 10.0 mi West 11.5 mph 18.4 mph N/A   Clear
5:58 AM 1.4 °F -13.5 °F -9.4 °F 61% 30.13 in 10.0 mi West 9.2 mph - N/A   Clear
6:18 AM 1.4 °F -15.3 °F -11.2 °F 56% 30.14 in 10.0 mi West 11.5 mph 17.3 mph N/A   Clear
6:38 AM 1.4 °F -12.5 °F -11.2 °F 56% 30.14 in 10.0 mi West 8.1 mph - N/A   Clear
6:58 AM 1.4 °F -11.3 °F -11.2 °F 56% 30.15 in 10.0 mi West 6.9 mph - N/A   Clear
7:18 AM 1.4 °F -12.5 °F -11.2 °F 56% 30.15 in 10.0 mi West 8.1 mph - N/A   Clear
7:38 AM 1.4 °F -9.9 °F -11.2 °F 56% 30.16 in 10.0 mi West 5.8 mph - N/A   Clear
7:58 AM 1.4 °F -13.5 °F -11.2 °F 56% 30.16 in 10.0 mi West 9.2 mph - N/A   Clear
8:18 AM 1.4 °F -12.5 °F -11.2 °F 56% 30.17 in 10.0 mi West 8.1 mph - N/A   Clear
8:38 AM 1.4 °F -11.3 °F -9.4 °F 61% 30.18 in 10.0 mi West 6.9 mph - N/A   Clear
8:58 AM 3.2 °F -10.3 °F -9.4 °F 56% 30.19 in 10.0 mi West 8.1 mph - N/A   Clear
9:18 AM 3.2 °F -7.8 °F -9.4 °F 56% 30.19 in 10.0 mi West 5.8 mph 16.1 mph N/A   Clear
9:38 AM 5.0 °F -11.6 °F -9.4 °F 52% 30.20 in 10.0 mi WNW 12.7 mph 19.6 mph N/A   Clear
9:58 AM 5.0 °F -10.0 °F -9.4 °F 52% 30.21 in 10.0 mi WNW 10.4 mph 20.7 mph N/A   Clear
10:18 AM 5.0 °F -10.8 °F -9.4 °F 52% 30.21 in 10.0 mi West 11.5 mph 17.3 mph N/A   Clear
10:38 AM 6.8 °F -9.3 °F -11.2 °F 44% 30.22 in 10.0 mi WNW 12.7 mph 21.9 mph N/A   Clear
10:58 AM 6.8 °F -8.6 °F -11.2 °F 44% 30.22 in 10.0 mi WNW 11.5 mph 20.7 mph N/A   Clear
11:18 AM 8.6 °F -7.0 °F -11.2 °F 40% 30.22 in 10.0 mi West 12.7 mph 21.9 mph N/A   Clear
11:38 AM 8.6 °F -7.0 °F -9.4 °F 44% 30.22 in 10.0 mi West 12.7 mph 16.1 mph N/A   Scattered Clouds
11:58 AM 8.6 °F -6.3 °F -9.4 °F 44% 30.21 in 10.0 mi WNW 11.5 mph 18.4 mph N/A   Clear
12:18 PM 10.4 °F -3.3 °F -11.2 °F 37% 30.20 in 10.0 mi WNW 10.4 mph 18.4 mph N/A   Clear
12:38 PM 8.6 °F -4.7 °F -11.2 °F 40% 30.20 in 10.0 mi West 9.2 mph 17.3 mph N/A   Scattered Clouds
12:58 PM 8.6 °F -7.7 °F -9.4 °F 44% 30.19 in 10.0 mi WNW 13.8 mph 17.3 mph N/A   Scattered Clouds
1:18 PM 8.6 °F -7.0 °F -9.4 °F 44% 30.19 in 10.0 mi West 12.7 mph 17.3 mph N/A   Scattered Clouds
1:38 PM 8.6 °F -5.5 °F -9.4 °F 44% 30.19 in 10.0 mi West 10.4 mph 19.6 mph N/A   Mostly Cloudy
1:58 PM 10.4 °F -2.4 °F -7.6 °F 44% 30.18 in 10.0 mi West 9.2 mph 17.3 mph N/A   Mostly Cloudy
2:18 PM 10.4 °F -6.6 °F -9.4 °F 41% 30.18 in 10.0 mi WNW 16.1 mph 20.7 mph N/A   Mostly Cloudy
2:38 PM 8.6 °F -6.3 °F -9.4 °F 44% 30.19 in 10.0 mi WNW 11.5 mph 19.6 mph N/A   Mostly Cloudy
2:58 PM 10.4 °F -1.5 °F -7.6 °F 44% 30.19 in 10.0 mi West 8.1 mph 17.3 mph N/A   Overcast
3:18 PM 12.2 °F -3.1 °F -9.4 °F 38% 30.20 in 10.0 mi West 13.8 mph 26.5 mph N/A   Overcast
3:38 PM 10.4 °F -6.0 °F -5.8 °F 48% 30.20 in 10.0 mi WNW 15.0 mph 24.2 mph N/A   Overcast
3:58 PM 10.4 °F -4.8 °F -4.0 °F 52% 30.21 in 10.0 mi WNW 12.7 mph 18.4 mph N/A   Overcast
4:18 PM 8.6 °F -4.7 °F -5.8 °F 52% 30.20 in 10.0 mi West 9.2 mph - N/A   Scattered Clouds
4:38 PM 8.6 °F 0.1 °F -5.8 °F 52% 30.20 in 10.0 mi West 4.6 mph - N/A   Scattered Clouds
4:58 PM 8.6 °F -4.7 °F -5.8 °F 52% 30.21 in 10.0 mi West 9.2 mph - N/A   Scattered Clouds
5:18 PM 8.6 °F -4.7 °F -5.8 °F 52% 30.22 in 10.0 mi West 9.2 mph - N/A   Scattered Clouds
5:38 PM 8.6 °F -3.7 °F -4.0 °F 57% 30.22 in 10.0 mi West 8.1 mph - N/A   Mostly Cloudy
5:58 PM 8.6 °F -2.6 °F -2.2 °F 62% 30.22 in 10.0 mi WNW 6.9 mph - N/A   Mostly Cloudy
6:18 PM 6.8 °F -0.1 °F -2.2 °F 67% 30.23 in 10.0 mi West 3.5 mph - N/A   Scattered Clouds
6:38 PM 6.8 °F - -2.2 °F 67% 30.23 in 10.0 mi Calm Calm - N/A   Scattered Clouds
6:58 PM 6.8 °F - -2.2 °F 67% 30.23 in 10.0 mi Calm Calm - N/A   Clear
7:18 PM 6.8 °F - -2.2 °F 67% 30.24 in 10.0 mi Calm Calm - N/A   Clear
7:38 PM 6.8 °F - -2.2 °F 67% 30.24 in 10.0 mi Calm Calm - N/A   Clear
7:58 PM 6.8 °F - -2.2 °F 67% 30.24 in 10.0 mi Calm Calm - N/A   Clear
8:18 PM 6.8 °F -2.0 °F -2.2 °F 67% 30.24 in 10.0 mi WSW 4.6 mph - N/A   Clear
8:38 PM 6.8 °F -2.0 °F -0.4 °F 72% 30.23 in 10.0 mi West 4.6 mph - N/A   Scattered Clouds
8:58 PM 6.8 °F -3.5 °F -0.4 °F 72% 30.23 in 10.0 mi West 5.8 mph - N/A   Clear
9:18 PM 6.8 °F - -0.4 °F 72% 30.23 in 10.0 mi Calm Calm - N/A   Clear
9:38 PM 6.8 °F - -0.4 °F 72% 30.23 in 10.0 mi Calm Calm - N/A   Clear
9:58 PM 6.8 °F - -0.4 °F 72% 30.23 in 10.0 mi Calm Calm - N/A   Mostly Cloudy
10:18 PM 6.8 °F - -0.4 °F 72% 30.23 in 10.0 mi Calm Calm - N/A   Mostly Cloudy
10:38 PM 5.0 °F - -0.4 °F 78% 30.23 in 10.0 mi Calm Calm - N/A   Scattered Clouds
10:58 PM 5.0 °F - -0.4 °F 78% 30.24 in 10.0 mi Calm Calm - N/A   Clear
11:18 PM 5.0 °F - -0.4 °F 78% 30.24 in 10.0 mi Calm Calm - N/A   Clear
11:38 PM 5.0 °F - -0.4 °F 78% 30.24 in 10.0 mi Calm Calm - N/A   Scattered Clouds
11:58 PM 5.0 °F - -0.4 °F 78% 30.24 in 10.0 mi Calm Calm - N/A   Mostly Cloudy